カタログに戻る

STARLINK-34841

運用中通信VLEO
NORAD 65208·PAYLOAD·🇺🇸 United States

打ち上げ Aug 14, 2025 から Cape Canaveral Space Force Station

Loading…

次のパス (今後24時間)

TLE

最新Source: CelesTrak SupGP

元期: Sep 15, 2026, 03:54 UTC

1 65208C 25176L   26258.16298611  .00064485  00000+0  19060-2 0  2581
2 65208  53.1592 348.4831 0001409 100.7769  69.8130 15.34345385    12

AllMySatでSTARLINK-34841をリアルタイム追跡

Download on the App Store